Location: DaVinci Observatory
(43.1080°N, 78.6453°W)
Time: 12:48:56
(UTC-04:00)

Tiangong 1 - Pass Details

Date: 09 October 2017
Orbit: 294 x 320 km, 42.8° (Epoch: 18 October)

Event Time Altitude Azimuth Distance (km) Brightness Sun altitude
Rises 20:43:53 0° 274° (W) 2,031 6.1 -23.1°
Reaches altitude 10° 20:45:53 10° 273° (W) 1,197 4.6 -23.4°
Enters shadow 20:46:51 20° 271° (W) 800 3.5 -23.6°
